Regional Weather Roundup
Issued by NWS Grand Forks, ND

Home | Current Version | Previous Version | Graphics & Text | Print | Product List | Glossary On
Versions: 1 2 3 4 5 6 7 8 9 10 11 12 13 14 15 16 17 18 19 20 21 22 23 24 25 26 27 28 29 30 31 32 33 34 35 36 37 38 39 40 41 42 43 44 45 46 47 48 49 50
030
ASUS43 KFGF 271510
RWRFGF
PRAIRIE TO PINES  WEATHER ROUNDUP
NATIONAL WEATHER SERVICE EASTERN NORTH DAKOTA/GRAND FORKS ND
1000 AM CDT SAT AUG 27 2016

 **SATELLITE DATA USED TO AUGMENT SKY COVER AT AUTOMATED STATIONS**
 *****  WEATHER ACROSS EASTERN NORTH DAKOTA  *****

CITY           SKY/WX    TMP DP  RH WIND       PRES   REMARKS
GRAND FORKS    LGT RAIN  60  57  89 SE13      29.95S
GRAND FRKS AFB CLOUDY    60  58  94 S10       29.95R
GRAND FRKS NWS   N/A     57 N/A N/A SE9         N/A
DEVILS LAKE    NOT AVBL
FARGO          CLOUDY    65  60  84 S13G20    29.96F
WAHPETON ARPT  PTSUNNY   68  59  73 S14       30.01R
$$

 ***** WEATHER ACROSS CENTRAL AND WESTERN NORTH DAKOTA  *****

CITY           SKY/WX    TMP DP  RH WIND       PRES   REMARKS
BISMARCK       MOSUNNY   62  54  74 VRB3      29.94S
MINOT          SUNNY     64  52  64 NW3       29.91F
JAMESTOWN      MOSUNNY   64  59  83 S7        29.94S
MINOT AFB      SUNNY     62  51  68 VRB1      29.90S
GARRISON         N/A     64  52  64 W5        29.93S
WILLISTON      SUNNY     58  46  64 S6        29.92F
DICKINSON      SUNNY     61  50  67 S7        29.93F
HETTINGER      SUNNY     62  52  69 SW7       29.97S
$$

 *****  OTHER AIRPORT OBSERVATIONS IN OUR AREA  *****

CITY           SKY/WX    TMP DP  RH WIND       PRES   REMARKS
WALHALLA       NOT AVBL
GRAFTON AIRPOR CLOUDY    61  61 100 S10       29.96S
VALLEY CITY AR PTSUNNY   61  61 100 SW12      29.98R
CANDO          NOT AVBL
CAVALIER APRT  FAIR      59  57  94 S12G17    29.93S
GWINNER        CLOUDY    66  63  88 S9        29.98S
SHEYENNE NWR     N/A     65  61  88 S9        29.95S
ROLLA          FAIR      61  55  82 SW6       29.92S
 ***** THE ABOVE OBSERVATIONS ARE NON NWS ARE NOT QUALITY
       CONTROLLED AND MAY MIS-REPORT RAIN FOR SNOW...
$$

  *****  WEATHER ACROSS NORTHERN MINNESOTA  *****

CITY           SKY/WX    TMP DP  RH WIND       PRES   REMARKS
FLAG ISLAND    CLOUDY    66  59  77 S3        29.98R HAZE
WARROAD        RAIN      61  57  88 S3        30.00R
ROSEAU         RAIN      61  55  82 S10       29.99R
HALLOCK        CLOUDY    61  57  88 S9        29.94S
THF RVR FALLS  NOT AVBL
BAUDETTE       CLOUDY    65  57  75 S9        30.00S
WASKISH        CLOUDY    64  57  77 S5        30.01F
CROOKSTON      RAIN      57  57 100 SE7       29.99S
GREENBUSH NDAW   N/A     57  57 100 S8          N/A
$$
  *****  WEATHER ACROSS CENTRAL AND WEST MINNESOTA  *****

CITY           SKY/WX    TMP DP  RH WIND       PRES   REMARKS
FOSSTON        CLOUDY    61  57  88 S7        30.01R
BEMIDJI        PTSUNNY   64  58  81 S10       30.03R
PARK RAPIDS    CLOUDY    65  55  70 SE13      30.03S
ELBOW LAKE     CLOUDY    65  59  83 S12       30.02S
WADENA         MOSUNNY   63  57  82 SE6       30.02F
DETROIT LAKES  CLOUDY    66  59  77 S8        30.03R
MOORHEAD       CLOUDY    64  61  88 S12       29.98S
FERGUS FALLS   PTSUNNY   64  59  82 S12       30.03R
MORRIS MN      MOSUNNY   68  59  73 S14       30.02S
STAPLES        MOSUNNY   64  57  77 S9        30.04S
$$
  *****  WEATHER ELSEWHERE ACROSS MINNESOTA  *****

CITY           SKY/WX    TMP DP  RH WIND       PRES   REMARKS
DULUTH         LGT RAIN  62  59  90 SE6       30.10S
INTRNTL FALLS  CLOUDY    68  57  68 VRB5      30.04S
ELY            CLOUDY    63  55  77 SE3       30.09S
CLOQUET        LGT RAIN  59  55  88 E3        30.10S
WHEATON        MOSUNNY   70  61  73 S10G16    30.03R
BRAINERD       PTSUNNY   63  59  87 SE7       30.06F
HIBBING        CLOUDY    59  56  89 SE7       30.08F
ALEXANDRIA     CLOUDY    66  57  72 S14       30.03F
SAINT CLOUD    LGT RAIN  61  61 100 SE5       30.06F
MINNEAPOLIS    LGT RAIN  64  59  83 SE8       30.07S
$$

  *****  WEATHER ACROSS SOUTH DAKOTA  *****

CITY           SKY/WX    TMP DP  RH WIND       PRES   REMARKS
SIOUX FALLS    CLOUDY    65  63  93 CALM      30.02S
BROOKINGS      CLOUDY    62  58  86 SE9       30.02F
WATERTOWN      CLOUDY    63  58  83 S10       30.02S
HURON          PTSUNNY   65  61  87 S14       30.00S
SISSETON         N/A     67  61  81 S9        29.99R
ABERDEEN       CLOUDY    63  60  90 S14       29.98S
MITCHELL       CLOUDY    66  61  84 S7        30.02S
PIERRE         SUNNY     67  55  65 W7        29.95F
MOBRIDGE       SUNNY     65  58  78 S3        29.94S
RAPID CITY     SUNNY     65  53  65 S13       29.99F
$$

  *****  SOME WEATHER IN NEARBY STATES *****

CITY           SKY/WX    TMP DP  RH WIND       PRES   REMARKS
GLASGOW MT     MOSUNNY   57  47  69 SE12G20   29.85F
GREAT FALLS MT CLOUDY    67  36  31 SW16      29.83F
CHEYENNE WY    SUNNY     62  40  44 S5        30.17S
SCOTTSBLUFF NE CLOUDY    55  54  96 SE6       30.08S FOG
OMAHA NE       CLOUDY    72  67  84 CALM      30.02S
DES MOINES IA  CLOUDY    67  65  93 S3        30.04S FOG
DAVENPORT IA   CLOUDY    74  69  85 SW13      30.03S
CHICAGO IL     CLOUDY    72  70  93 SE5       30.04F
EAU CLAIRE WI  CLOUDY    67  58  72 SE7       30.08F
LA CROSSE WI   CLOUDY    66  61  84 SE9       30.06S
$$

  *****  SOME NATIONAL WEATHER *****

CITY           SKY/WX    TMP DP  RH WIND       PRES   REMARKS
LA GUARDIA NY  MOSUNNY   83  62  49 NE8       30.19S
RALEIGH NC     MOSUNNY   90  74  59 NE8       30.13S HX  99
ATLANTA GA     MOSUNNY   83  70  64 E5        30.14R
NEW ORLEANS LA CLOUDY    85  76  74 NE10      29.99R HX  94
OKLAHOMA CITY  CLOUDY    77  71  82 SE9       30.05S
ALBUQUERQUE NM MOSUNNY   68  51  54 VRB3      30.22R
SALT LAKE CITY MOSUNNY   71  44  37 SE14      30.07S
LOS ANGELES CA CLOUDY    67  57  70 SE6       29.99R
BOISE ID       SUNNY     66  33  29 SE7       29.95S
SEATTLE WA     CLOUDY    61  55  81 SW10      29.85R
$$

*** WEATHER ACROSS MANITOBA...SASKATCHEWAN AND ONTARIO ***
                ***ONTARIO***

CITY           SKY/WX    TMP DP  RH WIND       PRES   REMARKS
GERALDTON      PTSUNNY   63  55  77 S8        30.13F
THUNDER BAY    PTSUNNY   64  57  77 E3        30.12S
SIOUX LOOKOUT  PTSUNNY   66  57  72 S5        30.04S
TORONTO        MOSUNNY   75  57  53 S5        30.21F
BIG TROUT LK   MOSUNNY   61  55  82 SW7       29.95F
PICKLE LAKE    PTSUNNY   64  55  72 S8        30.02S
DRYDEN         PTSUNNY   68  55  64 S8        30.03S
KENORA         PTSUNNY   64  55  72 S9G17     30.00R
$$
                *** MANITOBA***

CITY           SKY/WX    TMP DP  RH WIND       PRES   REMARKS
BRANDON        MOSUNNY   61  54  77 W8        29.88S
DAUPHIN        SUNNY     63  57  82 W10       29.84S
ISLAND LAKE    PTSUNNY   63  57  82 SW5       29.87S
PILOT MOUND      N/A     61  54  77 SW6         N/A
THE PAS        CLOUDY    59  55  88 N5        29.81S
THOMPSON       CLOUDY    54  54 100 VRB2      29.85S
WINNIPEG       PTSUNNY   61  54  77 S10       29.91S
LYNN LAKE      SUNNY     59  50  72 MISG      29.84S
CHURCHILL      MOSUNNY   59  50  72 S10       29.87F
GILLAM         CLOUDY    55  52  88 SE3       29.88S
$$
                ***SASKATCHEWAN***

CITY           SKY/WX    TMP DP  RH WIND       PRES   REMARKS
ESTEVAN        NOT AVBL
KINDERSLEY     PTSUNNY   57  48  72 SE10G17   29.69F
LLOYDMINSTER   CLOUDY    57  48  72 SE12G18   29.66F
PRINCE ALBERT  CLOUDY    54  54 100 SE7       29.81S FOG
REGINA         MOSUNNY   55  50  82 SE6       29.86F
YORKTON        CLOUDY    57  54  88 NW9       29.85S
N. BATTLEFORD  PTSUNNY   57  50  77 E12       29.74F
LA RONGE       PTSUNNY   57  54  88 SE8       29.80F
SASKATOON      PTSUNNY   59  50  72 SE10      29.80F
SWIFT CURRENT  SUNNY     59  48  67 S17G25    29.76F
$$
NOTE: THESE ARE AUTOMATED STATIONS WITH LIMITED QUALITY CONTROL
      "FAIR" INDICATES FEW OR NO CLOUDS BELOW 12,000 FEET WITH NO
      SIGNIFICANT WEATHER AND/OR OBSTRUCTIONS TO VISIBILITY.
      SKY/WX - SKY CONDITION AND SIGNIFICANT WEATHER.
      TMP - AIR TEMPERATURE.    DP   - DEWPOINT TEMPERATURE.
      RH  - RELATIVE HUMIDITY.  PRES - PRESSURE.
      HX  - HEAT INDEX.         WCI  - WIND CHILL INDEX.
$




USA.gov is the U.S. government's official web portal to all federal, state and local government web resources and services.